Weather in Suleya

Russia / Chelyabinsk Oblast     55°08′00″N   58°52′46″E
temp.,
°C
wind,
m/s
gust,
m/s
humid.,
%
clouds,
%
prec.,
mm/h
press.,
hPa
HPBL,
m
7 march, sun
sun723:00−13w1297100 0.4 101321
02:00−14ssw1197100 0.2 101320
05:00−15ese1197100 0.3 101220
08:00−15ese119499 0.0 101120
11:00−10nw1189100 0.1 1010268
14:00−10nw4485100 0.3 1008679
17:00−11nw3583100 0.3 1008763
20:00−16w129638 0.0 101020
8 march, mon
mon823:00−16wsw259869 0.3 1011137
02:00−18sw3597100 0.1 1011138
05:00−19ssw239489 0.1 101121
08:00−16se229083 0.0 100826
11:00−9sse278091 0.0 1006605
14:00−6sw61188100 0.2 10031217
17:00−5sw71579100 0.4 10011426
20:00−5wsw7148896 0.5 10021192
9 march, tue
tue923:00−8wsw6148591 1.3 1004943
02:00−10wsw5158812 0.0 1006667
05:00−12ssw369128 0.0 1006114
08:00−12se118842 0.0 100521
11:00−5s278069 0.0 1003493
14:00−3w8129195 1.5 10021089
17:00−6wsw8127497 2.1 10041529
20:00−10wsw4119367 0.1 1007351
10 march, wed
wed1023:00−13wsw239783 0.1 100938
02:00−15ssw1196100 0.0 100820
05:00−14ene1196100 0.0 100720
08:00−13nne1296100 0.1 100651
11:00−11nnw2390100 0.6 1005372
14:00−11nw5692100 0.4 1006511
17:00−13nw3690100 0.5 1007467
20:00−18wnw2295100 0.0 101050
11 march, thu
thu1123:00−21wnw2296100 0.1 101356
02:00−25wnw12100100 0.0 101425
05:00−27w229999 0.0 101619
08:00−28wsw339886 0.0 101845
11:00−21wsw479080 0.0 1018467
14:00−18w6108694 0.0 1017698
17:00−18w6118997 0.0 1017666
20:00−20w61296100 0.3 1019701